Torna al catalogo

COSMOS 2251 DEB

AttivoLEO
NORAD 33932·DEBRIS·🇷🇺 Russia

Lanciato Jun 16, 1993 da Plesetsk Cosmodrome

Loading…

Prossimi Passaggi (prossime 24 ore)

TLE

AggiornatoSource: Space-Track

Epoca: Sep 14, 2026, 10:37 UTC

1 33932U 93036EM  26257.44299074  .00000712  00000-0  23555-3 0  9995
2 33932  74.0341 167.1220 0036679 180.7533 179.3573 14.39385904919648

Traccia COSMOS 2251 DEB in tempo reale con AllMySat

Download on the App Store